This demonstration page uses our WeatherBlox Daily Observations layout. Learn more.

Left ArrowRight Arrow

31.31129, -92.44514

Hourly Observations for December 19, 2021

Temp ( °F °C ) Dew Point ( °F °C ) Humidity (%) Winds ( mph kmh ) Pressure ( in mb ) Visibility ( mi km ) Precip ( " mm )
12:51 am 00:51 Cloudy 50 10 46 8 88 88 N 13 20 30.13 1020 10 16 0.00 0.00
12:53 am 00:53 Cloudy 50 10 47 8.3 89 89 N 10 17 30.14 1021 10 16 0.00 0.00
1:53 am 01:53 Cloudy with Light Rain 49 9.4 46 7.8 90 90 N 9 15 30.16 1021 5 8 0.00 0.00
2:42 am 02:42 Cloudy 47 8.3 42 5.6 83 83 NNE 15 24 30.15 1021 10 16 0.00 0.00
2:53 am 02:53 Cloudy 47 8.3 41 5 80 80 N 14 22 30.16 1022 10 16 0.00 0.00
3:10 am 03:10 Cloudy 47 8.3 40 4.4 77 77 NNE 12 19 30.17 1022 10 16 0.00 0.00
3:42 am 03:42 Cloudy 46 7.8 39 3.9 77 77 NNE 14 22 30.17 1022 10 16 0.00 0.00
3:53 am 03:53 Cloudy 46 7.8 39 3.9 77 77 NNE 10 17 30.18 1022 10 16 0.00 0.00
4:50 am 04:50 Cloudy 46 8 39 4 76 76 N 8 13 30.18 1022 10 16 0.00 0.00
4:53 am 04:53 Cloudy 46 7.8 40 4.4 79 79 N 10 17 30.19 1022 10 16 0.00 0.00
5:53 am 05:53 Cloudy 45 7.2 38 3.3 77 77 N 12 19 30.20 1023 10 16 0.00 0.00
6:53 am 06:53 Cloudy 44 6.7 37 2.8 76 76 NNW 8 13 30.26 1025 10 16 0.00 0.00
7:53 am 07:53 Cloudy 43 6.1 36 2.2 76 76 N 9 15 30.28 1025 10 16 0.00 0.00
8:53 am 08:53 Cloudy 43 6.1 37 2.8 80 80 NNW 10 17 30.32 1027 10 16 0.00 0.00
9:15 am 09:15 Cloudy 43 6.1 36 2.2 76 76 NNE 6 9 30.31 1027 10 16 0.00 0.00
9:50 am 09:50 Cloudy 43 6 36 2 76 76 N 9 15 30.29 1026 10 16 0.00 0.00
9:53 am 09:53 Cloudy 44 6.7 36 2.2 73 73 N 12 19 30.31 1026 10 16 0.00 0.00
10:53 am 10:53 Cloudy 45 7.2 36 2.2 71 71 NNW 9 15 30.31 1027 10 16 0.00 0.00
11:53 am 11:53 Cloudy 46 7.8 37 2.8 71 71 N 12 19 30.29 1026 10 16 0.00 0.00
12:53 pm 12:53 Mostly Cloudy 48 8.9 38 3.3 68 68 N 14 22 30.24 1024 10 16 0.00 0.00
1:12 pm 13:12 Mostly Sunny 49 9.4 37 2.8 64 64 N 10 17 30.22 1023 10 16 0.00 0.00
1:53 pm 13:53 Sunny 51 10.6 38 3.3 61 61 NNE 12 19 30.22 1023 10 16 0.00 0.00
2:53 pm 14:53 Sunny 51 10.6 38 3.3 61 61 NNE 12 19 30.22 1023 10 16 0.00 0.00
3:53 pm 15:53 Sunny 50 10 36 2.2 59 59 NNE 9 15 30.21 1023 10 16 0.00 0.00
4:53 pm 16:53 Sunny 47 8.3 36 2.2 66 66 NNE 6 9 30.24 1024 10 16 0.00 0.00
5:53 pm 17:53 Clear 45 7.2 36 2.2 71 71 N 7 11 30.25 1024 10 16 0.00 0.00
6:53 pm 18:53 Partly Cloudy 44 6.7 36 2.2 73 73 N 5 7 30.29 1026 10 16 0.00 0.00
7:01 pm 19:01 Mostly Cloudy 44 6.7 36 2.2 73 73 N 6 9 30.27 1025 10 16 0.00 0.00
7:08 pm 19:08 Partly Cloudy 44 6.7 36 2.2 73 73 N 7 11 30.27 1025 10 16 0.00 0.00
7:53 pm 19:53 Clear 43 6.1 35 1.7 74 74 NNE 8 13 30.28 1025 10 16 0.00 0.00
8:53 pm 20:53 Clear 42 5.6 35 1.7 76 76 NNE 6 9 30.29 1026 10 16 0.00 0.00
9:53 pm 21:53 Clear 41 5 35 1.7 79 79 NE 7 11 30.27 1025 10 16 0.00 0.00
10:53 pm 22:53 Clear 41 5 34 1.1 76 76 NE 7 11 30.27 1025 10 16 0.00 0.00
11:53 pm 23:53 Clear 41 5 34 1.1 76 76 NNE 7 11 30.26 1025 10 16 0.00 0.00

Powered by AerisWeather